SCP
0 0 0 0 0 0 0 0 0 0 0 0 0 0 0 0 0 0 0 0 0 0 0 0 0 0 0 0 0 0 0 0 0 0 0 0 0 0
0 0 0 0 0 0 0 0 0 0 0 0 0 0 0 0 0 0 0 0 0 0 0 0 0 0 0 0 0 0 0 0 0 0 0 0 0 0
0 0 0 0 0 0 0 0 0 0 0 0 0 0 0 0 0 0 0 0 0 0 0 0 0 0 0 0 0 0 0 0 0 0 0 0 0 0
0 0 0 0 0 0 0 0 0 0 0 0 0 0 0 0 0 0 0 0 0 0 0 0 0 0 0 0 0 0 0 0 0 0 0 0 0 0
0 0 0 0 0 0 0 0 0 0 0 0 0 0 0 0 0 0 0 0 0 0 0 0 0 0 0 0 0 0 0 0 0 0 0 0 0 0
0 0 0 0 0 0 0 0 0 0 0 0 0 0 0 0 0 0 0 0 0 0 0 0 0 0 0 0 0 0 0 0 0 0 0 0 0 0
0 0 0 0 0 0 0 0 0 0 0 0 0 0 0 0 0 0 0 0 0 0 0 0 0 0 0 0 0 0 0 0 0 0 0 0 0 0
0 0 0 0 0 0 0 0 0 0 0 0 0 0 0 0 0 0 0 0 0 0 0 0 0 0 0 0 0 0 0 0 0 0 0 0 0 0
0 0 0 0 0 0 0 0 0 0 0 0 0 0 0 0 0 0 0 0 0 0 0 0 0 0 0 0 0 0 0 0 0 0 0 0 0 0
0 0 0 0 0 0 0 0 0 0 0 0 0 0 0 0 0 0 0 0 0 0 0 0 0 0 0 0 0 0 0 0 0 0 0 0 0 0
0 0 0 0 0 0 0 0 0 0 0 0 0 0 0 0 0 0 0 0 0 0 0 0 0 0 0 0 0 0 0 0 0 0 0 0 0 0
0 0 0 0 0 0 0 0 0 0 0 0 0 0 0 0 0 0 0 0 0 0 0 0 0 0 0 0 0 0 0 0 0 0 0 0 0 0
0 0 0 0 0 0 0 0 0 0 0 0 0 0 0 0 0 0 0 0 0 0 0 0 0 0 0 0 0 0 0 0 0 0 0 0 0 0
0 0 0 0 0 0 0 0 0 0 0 0 0 0 0 0 0 0 0 0 0 0 0 0 0 0 0 0 0 0 0 0 0 0 0 0 0 0
0 0 0 0 0 0 0 0 0 0 0 0 0 0 0 0 0 0 0 0 0 0 0 0 0 0 0 0 0 0 0 0 0 0 0 0 0 0
0 0 0 0 0 0 0 0 0 0 0 0 0 0 0 0 0 0 0 0 0 0 0 0 0 0 0 0 0 0 0 0 0 0 0 0 0 0
0 0 0 0 0 0 0 0 0 0 0 0 0 0 0 0 0 0 0 0 0 0 0 0 0 0 0 0 0 0 0 0 0 0 0 0 0 0
0 0 0 0 0 0 0 0 0 0 0 0 0 0 0 0 0 0 0 0 0 0 0 0 0 0 0 0 0 0 0 0 0 0 0 0 0 0
0 0 0 0 0 0 0 0 0 0 0 0 0 0 0 0 0 0 0 0 0 0 0 0 0 0 0 0 0 0 0 0 0 0 0 0 0 0
0 0 0 0 0 0 0 0 0 0 0 0 0 0 0 0 0 0 0 0 0 0 0 0 0 0 0 0 0 0 0 0 0 0 0 0 0 0
0 0 0 0 0 0 0 0 0 0 0 0 0 0 0 0 0 0 0 0 0 0 0 0 0 0 0 0 0 0 0 0 0 0 0 0 0 0
0 0 0 0 0 0 0 0 0 0 0 0 0 0 0 0 0 0 0 0 0 0 0 0 0 0 0 0 0 0 0 0 0 0 0 0 0 0
0 0 0 0 0 0 0 0 0 0 0 0 0 0 0 0 0 0 0 0 0 0 0 0 0 0 0 0 0 0 0 0 0 0 0 0 0 0
Wind_Speed
3 3 3 3 2 3 3 3 3 4 4 4 3 2 2 2 4 2 2 3 5 6 7 8 10 14 16 18 19 19 19 18 18 16 15 15 15 15
2 3 2 2 2 2 3 3 3 4 4 3 3 3 4 4 5 3 3 5 5 6 8 10 12 14 15 16 16 16 16 15 14 13 13 13 12 12
3 3 3 3 3 3 3 3 3 3 5 5 3 3 5 5 4 3 3 3 3 6 7 9 10 12 13 14 14 14 14 13 12 12 12 12 12 12
3 3 4 4 4 4 3 4 4 4 4 6 4 3 5 5 5 5 4 4 3 6 8 9 10 11 11 12 12 13 12 12 11 11 11 11 12 12
3 3 3 4 4 4 5 4 4 5 4 4 4 3 3 3 4 4 4 3 5 7 9 9 10 11 11 11 11 12 11 11 11 11 11 11 11 12
4 3 3 3 4 5 5 5 5 6 5 4 4 2 2 2 4 4 4 3 4 5 7 8 10 11 12 12 12 12 12 12 12 12 12 12 12 13
5 4 3 6 7 5 4 5 5 4 5 4 3 2 1 1 3 3 4 3 3 2 4 5 5 6 7 10 12 13 13 13 13 13 13 14 14 14
4 5 4 6 9 9 8 6 5 4 5 4 3 3 3 2 2 3 4 4 3 3 3 3 4 5 6 6 11 14 14 15 14 14 14 15 15 15
4 4 5 6 8 6 8 8 7 8 6 3 4 4 4 3 2 3 4 4 4 3 3 3 3 3 3 4 10 12 13 13 13 13 14 14 14 14
4 4 4 6 8 7 6 7 7 6 6 4 2 4 4 5 3 3 3 3 2 1 3 3 3 2 2 2 4 7 8 9 9 10 10 10 11 11
3 4 5 5 10 10 7 7 8 7 7 8 6 6 7 8 5 2 1 2 2 1 1 3 3 3 2 2 2 4 5 6 6 6 6 7 7 7
3 4 7 8 10 10 6 5 7 7 8 8 7 7 6 7 8 4 1 1 1 1 1 2 3 3 3 2 2 2 2 3 4 4 5 5 5 3
4 4 5 11 11 11 7 4 5 5 5 5 5 6 5 5 5 4 3 1 1 0 1 2 2 2 3 2 2 3 3 2 2 2 2 4 4 4
3 4 5 10 11 11 8 9 11 8 5 5 6 6 6 6 5 5 4 3 1 1 1 2 2 3 3 3 2 2 2 2 2 2 1 3 4 5
3 7 9 10 9 7 10 12 9 6 6 5 5 5 5 6 5 5 5 4 4 3 2 0 2 2 3 3 3 2 2 1 1 2 2 2 1 2
5 7 8 8 6 6 6 6 5 5 4 4 4 4 5 6 6 5 4 4 3 4 4 3 1 2 2 2 3 3 2 2 2 2 2 1 1 1
4 3 4 4 5 5 4 4 5 5 5 5 4 5 6 6 5 5 4 3 3 3 4 4 3 2 2 3 3 2 2 1 2 3 3 2 1 2
3 3 3 3 3 3 3 4 4 4 4 4 4 5 5 5 5 5 4 4 4 4 3 3 3 3 3 3 2 3 2 1 1 2 3 3 2 0
2 1 1 2 2 2 2 2 2 3 3 3 4 4 4 4 4 5 6 5 4 4 4 3 3 2 1 1 3 0 3 2 2 2 2 3 3 3
0 1 1 0 0 1 1 2 2 3 3 3 4 4 4 4 5 5 6 6 5 4 5 4 5 3 1 2 2 1 1 3 3 3 2 2 2 2
1 1 1 1 1 1 1 2 2 3 3 3 3 4 4 4 5 5 5 7 6 5 5 5 4 6 2 2 2 2 2 1 2 4 4 3 2 1
2 2 1 2 2 2 2 2 3 3 4 4 4 4 4 4 4 5 5 5 5 5 5 5 6 5 4 4 3 3 3 3 3 2 3 6 5 5
4 4 3 3 3 3 3 3 4 3 3 3 3 3 3 3 3 3 3 4 4 5 5 5 5 4 3 3 3 3 5 4 3 2 2 3 2 4
Wind_Direction
295 295 285 279 277 267 254 233 240 276 285 269 266 241 201 185 177 153 129 89 70 61 66 93 118 128 135 142 149 156 161 167 174 182 187 192 199 207
321 327 324 311 312 307 296 276 240 242 267 266 255 238 204 197 182 159 143 124 105 96 93 101 113 123 131 138 144 151 161 170 178 182 188 194 200 208
357 3 355 348 348 335 324 312 290 265 267 271 248 234 200 193 174 164 145 142 136 134 126 124 126 132 139 145 152 161 170 176 181 186 194 199 204 212
358 5 2 1 354 337 330 319 307 285 267 277 267 228 212 197 179 175 169 174 165 173 164 156 154 155 157 162 169 175 180 186 192 198 204 209 213 219
12 20 6 5 349 334 329 327 317 310 287 274 272 238 216 181 169 182 183 175 185 184 185 183 179 177 178 182 186 190 194 200 206 212 218 221 224 228
11 19 10 359 335 324 322 323 321 318 311 298 281 262 226 183 169 177 179 187 195 184 184 188 192 193 195 195 199 203 206 212 218 222 226 230 233 235
11 10 11 5 345 329 316 314 322 322 325 322 316 320 309 181 198 188 186 170 193 178 164 180 180 194 203 208 210 212 214 219 223 227 230 232 235 238
16 4 357 7 351 350 351 353 351 340 334 336 333 335 326 288 238 194 173 168 198 194 160 176 169 188 198 201 210 212 216 220 224 227 231 233 236 238
28 18 13 6 1 354 354 1 2 2 7 346 345 336 322 310 286 217 197 185 183 171 146 158 159 173 178 191 197 206 214 221 225 228 232 234 236 238
37 28 22 7 6 4 4 2 351 345 340 347 319 304 305 302 283 251 208 156 106 127 146 150 153 151 143 137 172 191 203 212 217 222 226 229 231 234
33 29 22 11 2 15 19 3 354 346 343 339 323 319 331 349 359 29 85 134 143 164 153 142 146 140 141 158 169 178 184 191 200 208 215 216 216 216
3 7 15 12 8 18 21 8 356 334 337 347 352 351 352 356 10 24 37 104 118 165 173 152 151 150 161 168 174 178 187 191 189 193 194 190 185 175
13 357 352 360 11 14 17 7 332 323 339 359 3 358 356 356 353 2 21 74 108 235 201 155 157 155 152 155 174 183 180 174 176 181 179 165 161 159
15 347 342 357 10 16 18 11 12 18 18 19 17 7 359 349 337 341 2 19 29 229 219 166 164 167 154 158 169 166 166 166 171 170 150 127 109 101
359 353 355 359 5 11 15 18 22 24 25 24 10 356 344 341 344 343 349 3 9 7 11 250 175 157 147 155 153 150 145 169 188 172 167 171 161 122
356 348 355 4 11 8 7 13 18 24 29 19 356 347 354 359 358 351 347 348 357 342 351 14 50 136 131 132 138 141 147 160 181 182 149 139 126 105
343 353 7 6 8 5 2 6 13 18 17 5 7 7 3 0 357 351 356 2 4 339 336 351 17 52 92 127 130 150 152 161 169 156 137 117 73 96
20 4 348 351 358 0 2 3 10 12 2 2 11 12 6 3 358 358 4 11 14 357 339 338 5 27 34 28 72 142 136 143 142 137 130 124 137 124
34 345 332 330 343 359 6 6 0 350 355 13 18 12 4 5 7 7 9 4 4 3 359 0 13 35 67 0 328 78 148 142 119 107 126 137 165 189
1 296 302 310 16 31 18 8 3 4 16 26 28 21 17 18 20 16 17 10 358 1 5 12 21 5 299 238 245 286 144 144 137 135 124 82 68 79
286 258 208 147 107 83 54 40 42 36 34 35 33 25 22 31 27 17 15 13 15 14 13 356 336 331 317 16 14 340 336 352 156 152 143 124 117 125
211 185 162 139 124 103 85 74 68 56 45 43 33 28 22 28 30 25 17 13 15 13 4 349 348 5 29 29 8 345 334 340 9 84 153 163 158 178
189 175 161 147 133 119 106 98 91 73 60 53 39 23 18 18 10 19 17 12 15 11 6 5 2 5 25 35 17 357 350 347 348 5 351 328 261 217